Satellite: AO-51
Catalog number: 28375
Epoch time:      08339.49196482
Element set:     259
Inclination:      098.0594 deg
RA of node:       354.3923 deg
Eccentricity:    0.0084808
Arg of perigee:   356.7577 deg
Mean anomaly:     003.3054 deg
Mean motion:   14.40626600 rev/day
Decay rate:        1.4e-07 rev/day^2
Epoch rev:           23292
Checksum:              323

Satellite: CO-57
Catalog number: 27848
Epoch time:      08338.56659262
Element set:     406
Inclination:      098.7160 deg
RA of node:       343.5578 deg
Eccentricity:    0.0010005
Arg of perigee:   356.0741 deg
Mean anomaly:     004.0368 deg
Mean motion:   14.20416368 rev/day
Decay rate:        3.4e-07 rev/day^2
Epoch rev:           28145
Checksum:              306

Satellite: CO-55
Catalog number: 27844
Epoch time:      08339.03864183
Element set:     456
Inclination:      098.7155 deg
RA of node:       344.9528 deg
Eccentricity:    0.0010006
Arg of perigee:   352.2865 deg
Mean anomaly:     007.8153 deg
Mean motion:   14.20610483 rev/day
Decay rate:        6.9e-07 rev/day^2
Epoch rev:           28155
Checksum:              314

Satellite: SO-50
Catalog number: 27607
Epoch time:      08339.05994077
Element set:     757
Inclination:      064.5591 deg
RA of node:       257.7205 deg
Eccentricity:    0.0083706
Arg of perigee:   246.3755 deg
Mean anomaly:     112.8537 deg
Mean motion:   14.71399355 rev/day
Decay rate:        3.2e-07 rev/day^2
Epoch rev:           31996
Checksum:              342

Satellite: NO-44
Catalog number: 26931
Epoch time:      08339.15776423
Element set:      42
Inclination:      067.0511 deg
RA of node:       206.7846 deg
Eccentricity:    0.0006430
Arg of perigee:   255.9841 deg
Mean anomaly:     104.0542 deg
Mean motion:   14.29541108 rev/day
Decay rate:       1.14e-06 rev/day^2
Epoch rev:           37470
Checksum:              281

Satellite: GO-32
Catalog number: 25397
Epoch time:      08339.11262101
Element set:     763
Inclination:      098.3465 deg
RA of node:       005.7245 deg
Eccentricity:    0.0002211
Arg of perigee:   097.7416 deg
Mean anomaly:     262.4024 deg
Mean motion:   14.23152451 rev/day
Decay rate:        9.5e-07 rev/day^2
Epoch rev:           54038
Checksum:              275

Satellite: IO-26
Catalog number: 22826
Epoch time:      08339.48230719
Element set:     837
Inclination:      098.4029 deg
RA of node:       294.1606 deg
Eccentricity:    0.0009695
Arg of perigee:   111.4576 deg
Mean anomaly:     248.7650 deg
Mean motion:   14.29503183 rev/day
Decay rate:       -1.0e-07 rev/day^2
Epoch rev:           79219
Checksum:              326

Satellite: AO-27
Catalog number: 22825
Epoch time:      08339.66796267
Element set:     121
Inclination:      098.4119 deg
RA of node:       293.5059 deg
Eccentricity:    0.0009099
Arg of perigee:   114.7703 deg
Mean anomaly:     245.4388 deg
Mean motion:   14.29253134 rev/day
Decay rate:        5.0e-07 rev/day^2
Epoch rev:           79212
Checksum:              324

Satellite: LO-19
Catalog number: 20442
Epoch time:      08338.48502160
Element set:     402
Inclination:      098.2191 deg
RA of node:       318.0756 deg
Eccentricity:    0.0012574
Arg of perigee:   033.8891 deg
Mean anomaly:     326.3107 deg
Mean motion:   14.32047189 rev/day
Decay rate:        2.0e-07 rev/day^2
Epoch rev:           98530
Checksum:              286

Satellite: AO-16
Catalog number: 20439
Epoch time:      08339.44407590
Element set:     478
Inclination:      098.2530 deg
RA of node:       310.9986 deg
Eccentricity:    0.0011602
Arg of perigee:   033.9259 deg
Mean anomaly:     326.2672 deg
Mean motion:   14.31809764 rev/day
Decay rate:       -1.0e-07 rev/day^2
Epoch rev:           98528
Checksum:              320

/EX
SB KEPS @ AMSAT  $ORB08339.W
Orbital Elements  08339.WEATHER

HR AMSAT ORBITAL ELEMENTS FOR WEATHER SATELLITES
FROM WA5QGD FORT WORTH,TX December 4, 2008
Send Subscribe/unsubscribe to KEPS at 
http://www.amsat.org/mailman/listinfo/keps
BID: ORB08339.W
TO ALL RADIO AMATEURS BT

Satellite: NOAA-18
Catalog number: 28654
Epoch time:      08339.50006938
Element set:     688
Inclination:      098.8878 deg
RA of node:       278.4684 deg
Eccentricity:    0.0014071
Arg of perigee:   189.7174 deg
Mean anomaly:     170.3716 deg
Mean motion:   14.11212567 rev/day
Decay rate:      -2.25e-06 rev/day^2
Epoch rev:           18249
Checksum:              346

Satellite: NOAA-17
Catalog number: 27453
Epoch time:      08339.51426581
Element set:     203
Inclination:      098.5140 deg
RA of node:       039.0245 deg
Eccentricity:    0.0011230
Arg of perigee:   335.9222 deg
Mean anomaly:     024.1441 deg
Mean motion:   14.24022324 rev/day
Decay rate:        1.3e-07 rev/day^2
Epoch rev:           33504
Checksum:              242

Satellite: NOAA-16
Catalog number: 26536
Epoch time:      08339.49640418
Element set:     196
Inclination:      099.1706 deg
RA of node:       332.5264 deg
Eccentricity:    0.0011252
Arg of perigee:   106.2579 deg
Mean anomaly:     253.9846 deg
Mean motion:   14.12502144 rev/day
Decay rate:      -2.80e-06 rev/day^2
Epoch rev:           42281
Checksum:              301

